Hourly Weather Roundup
Issued by NWS Central Illinois

Home | Current Version | Previous Version | Text Only | Print | Product List | Glossary On
Versions: 1 2 3 4 5 6 7 8 9 10 11 12 13 14 15 16 17 18 19 20 21 22 23 24 25 26 27 28 29 30 31 32 33 34 35 36 37 38 39 40 41 42 43 44 45 46 47 48 49 50
000
NZUS43 KILX 261910
HWRILX

AREA WEATHER ROUNDUP
NATIONAL WEATHER SERVICE, LINCOLN IL
200 PM CDT TUE JUL 26 2016


CITY           SKY/WX    TMP DP  RH WIND       PRES   REMARKS
BLOOMINGTON    MOSUNNY   84  70  62 E6        30.05F HX  88
CHAMPAIGN      MOSUNNY   81  69  67 E8        30.05F HX  84
DANVILLE       SUNNY     82  67  61 SE3       30.02F HX  84
DECATUR        CLOUDY    84  70  62 E10       30.04F HX  88
EFFINGHAM      PTSUNNY   82  77  86 NE3       30.04F HX  89
FLORA          MOSUNNY   86  75  68 CALM      30.01F HX  94
GALESBURG      PTSUNNY   84  65  52 CALM      30.05S HX  86
JACKSONVILLE   CLOUDY    84  70  61 N3        30.03F HX  88
LACON          CLOUDY    83  67  57 N3        30.03S HX  86
LAWRENCEVILLE  PTSUNNY   84  74  71 NE6       30.01F HX  91
LITCHFIELD     NOT AVBL
$$


CITY           SKY/WX    TMP DP  RH WIND       PRES   REMARKS
LINCOLN        SUNNY     86  70  60 SE3       30.03F HX  90
MACOMB         MOSUNNY   84  66  55 CALM      30.06F HX  86
MATTOON        SUNNY     80  68  66 VRB7      30.03F HX  83
MT CARMEL AP   MOSUNNY   84  73  68 CALM      30.00F HX  91
OLNEY-NOBLE AP MOSUNNY   82  73  74 CALM      30.01F HX  88
PARIS          CLOUDY    81  67  63 CALM      30.05S HX  83
PEORIA         MOSUNNY   87  66  49 VRB3      30.03F HX  89
PONTIAC        MOSUNNY   85  71  62 SE5       30.04F HX  90
RANTOUL        NOT AVBL
ROBINSON       SUNNY     80  73  76 NE3       30.03F HX  85
SPRINGFIELD    SUNNY     85  66  53 E5        30.03F HX  87
TAYLORVILLE    CLOUDY    84  73  69 MISG      30.02F HX  90
$$

...REGIONAL REPORTS...


CITY           SKY/WX    TMP DP  RH WIND       PRES   REMARKS
CHICAGO O`HARE PTSUNNY   85  62  46 E3        30.03F HX  85
KANKAKEE       MOSUNNY   85  68  56 E3        30.05F HX  89
MOLINE         MOSUNNY   86  64  47 VRB5      30.04F HX  87
MOUNT STERLING SUNNY     84  66  55 N3        30.03F HX  86
MOUNT VERNON   MOSUNNY   88  73  62 MISG      29.98F HX  96
PITTSFIELD     MOSUNNY   84  70  61 CALM      30.04F HX  88
QUINCY         MOSUNNY   85  65  51 NW6       30.04S HX  86
ROCKFORD       MOSUNNY   85  63  47 SW5       30.06F HX  86
$$


CITY           SKY/WX    TMP DP  RH WIND       PRES   REMARKS
BURLINGTON     MOSUNNY   84  65  52 E5        30.04F HX  86
CEDAR RAPIDS   SUNNY     83  66  56 N3        30.06F HX  85
DES MOINES     MOSUNNY   86  63  45 E8        30.05F HX  87
KIRKSVILLE     MOSUNNY   85  63  47 CALM      30.06F HX  86
OTTUMWA        SUNNY     83  63  50 E8        30.04F HX  84
ST LOUIS       PTSUNNY   88  72  58 NE6       30.00F HX  94
$$


CITY           SKY/WX    TMP DP  RH WIND       PRES   REMARKS
TERRE HAUTE    CLOUDY    79  68  69 E9        30.03F HX  81
EVANSVILLE     PTSUNNY   88  75  65 NE3       29.99F HX  97
INDIANAPOLIS   CLOUDY    77  69  76 CALM      30.04F
LAFAYETTE      PTSUNNY   82  66  58 E6        30.03F HX  84
MADISON        MOSUNNY   85  58  39 W5        30.06S HX  84
MILWAUKEE      MOSUNNY   84  59  42 E10       30.04F HX  84
$$





USA.gov is the U.S. government's official web portal to all federal, state and local government web resources and services.